Jackson, MI

8:02 AM EDT on October 15, 2019 (GMT -0400)
Jackson County-Reynolds

Weather History for KJXN - July, 2019

Change the Weather History Date:

Monday, July 29, 2019

  Actual Average Record
Temperature  
Mean Temperature 78 °F 71 °F  
Max Temperature 88 °F 81 °F 91 °F (1970)
Min Temperature 68 °F 60 °F 33 °F (1996)
Degree Days  
Heating Degree Days 0 0  
Month to date heating degree days 0 1  
Since 1 June heating degree days 58 56  
Since 1 July heating degree days 0 1  
Cooling Degree Days 13 6  
Month to date cooling degree days 288 192  
Year to date cooling degree days 391 355  
Since 1 June cooling degree days 381 318  
Growing Degree Days 27 (Base 50)    
Moisture  
Dew Point 69 °F    
Average Humidity 79    
Maximum Humidity 100    
Minimum Humidity 57    
Precipitation  
Precipitation 1.23 in 0.12 in 1.55 in (1991)
Month to date precipitation 3.47 3.33  
Year to date precipitation 20.19 17.20  
Sea Level Pressure  
Sea Level Pressure 29.89 in    
Wind  
Wind Speed 8 mph (SSW)    
Max Wind Speed 23 mph    
Max Gust Speed 34 mph    
Visibility 6 miles    
Events Fog , Rain , Thunderstorm    
T = Trace of Precipitation, MM = Missing Value Source: NWS Daily Summary

Daily Weather History Graph

Daily Weather History Graph

Search for Another Location

Airport or City:

Astronomy

Jul. 29, 2019 Rise Set
Actual Time 6:27 AM EDT 9:00 PM EDT
Civil Twilight 5:55 AM EDT 9:32 PM EDT
Nautical Twilight 5:15 AM EDT 10:12 PM EDT
Astronomical Twilight 4:29 AM EDT 10:57 PM EDT
Moon 3:37 AM EDT (7/29) 7:04 PM EDT (7/29)
Length of Visible Light 15h 37m
Length of Day
14h 33m
Waning Crescent, 8% of the Moon is Illuminated
Jul 29
Waning Crescent
Jul 31
New
Aug 7
First Quarter
Aug 15
Full
Aug 23
Last Quarter

Hourly Weather History & Observations

Time (EDT) Temp. Heat Index Dew Point Humidity Pressure Visibility Wind Dir Wind Speed Gust Speed Precip Events Conditions
8:56 AM 75.9 °F - 66.9 °F 74% 29.92 in 10.0 mi South 8.1 mph - N/A   Scattered Clouds
9:56 AM 78.1 °F - 68.0 °F 71% 29.91 in 10.0 mi South 12.7 mph - N/A   Scattered Clouds
10:56 AM 82.9 °F 86.5 °F 69.1 °F 63% 29.90 in 10.0 mi South 11.5 mph 21.9 mph N/A   Clear
11:56 AM 86.0 °F 90.7 °F 70.0 °F 59% 29.88 in 10.0 mi SW 13.8 mph 21.9 mph N/A   Clear
12:56 PM 82.0 °F 85.9 °F 70.0 °F 67% 29.87 in 10.0 mi SW 10.4 mph 19.6 mph N/A   Mostly Cloudy
1:30 PM 75.9 °F - 70.0 °F 82% 29.88 in 1.8 mi SW 15.0 mph 34.5 mph 0.05 in Rain Rain
1:40 PM 75.9 °F - 70.0 °F 82% 29.88 in 4.0 mi SW 9.2 mph - 0.05 in   Haze
1:56 PM 75.9 °F - 72.0 °F 87% 29.86 in 9.0 mi SW 16.1 mph 25.3 mph 0.05 in Thunderstorm Mostly Cloudy
2:10 PM 75.2 °F - 71.6 °F 89% 29.89 in 10.0 mi SSW 9.2 mph - N/A   Scattered Clouds
2:13 PM 75.0 °F - 71.1 °F 87% 29.89 in 10.0 mi SSW 9.2 mph - 0.02 in Thunderstorm Thunderstorm
2:33 PM 73.9 °F - 70.0 °F 87% 29.89 in 2.5 mi South 9.2 mph - 0.06 in Rain Light Rain
2:40 PM 73.9 °F - 71.1 °F 91% 29.90 in 1.5 mi SW 9.2 mph - 0.11 in Rain , Thunderstorm Heavy Rain
2:47 PM 72.0 °F - 70.0 °F 93% 29.91 in 0.5 mi SSW 17.3 mph 28.8 mph 0.29 in Fog , Rain , Thunderstorm Heavy Rain
2:53 PM 71.6 °F - 68.0 °F 88% 29.90 in 0.5 mi SSW 15.0 mph 31.1 mph 0.34 in Fog , Rain , Thunderstorm Thunderstorms and Rain
2:54 PM 71.1 °F - 68.0 °F 90% 29.88 in 0.5 mi SSW 12.7 mph 31.1 mph 0.36 in Fog , Rain , Thunderstorm Thunderstorms and Rain
3:03 PM 70.0 °F - 66.9 °F 90% 29.89 in 1.5 mi SW 9.2 mph - 0.04 in Rain Light Rain
3:07 PM 70.0 °F - 66.9 °F 90% 29.89 in 3.0 mi SSW 9.2 mph - 0.05 in Rain Light Rain
3:33 PM 71.1 °F - 70.0 °F 96% 29.90 in 10.0 mi South 11.5 mph - 0.05 in Thunderstorm Overcast
3:38 PM 71.1 °F - 70.0 °F 96% 29.92 in 1.8 mi SSW 12.7 mph - 0.12 in Rain , Thunderstorm Light Rain
3:46 PM 70.0 °F - 70.0 °F 100% 29.90 in 0.2 mi SSW 8.1 mph 23.0 mph 0.44 in Fog , Rain , Thunderstorm Heavy Thunderstorms and Rain
3:52 PM 69.8 °F - 69.8 °F 100% 29.90 in 0.5 mi South 4.6 mph - 0.47 in Fog , Rain , Thunderstorm Heavy Thunderstorms and Rain
3:56 PM 70.0 °F - 69.1 °F 97% 29.89 in 1.5 mi SSW 6.9 mph - 0.48 in Rain , Thunderstorm Thunderstorms and Rain
4:23 PM 70.0 °F - 70.0 °F 100% 29.91 in 1.2 mi WSW 5.8 mph - 0.08 in Rain Heavy Rain
4:37 PM 70.0 °F - 70.0 °F 100% 29.91 in 0.8 mi SSW 5.8 mph - 0.18 in Rain Heavy Rain
4:46 PM 70.0 °F - 69.1 °F 97% 29.91 in 2.0 mi SSW 9.2 mph - 0.21 in Rain Rain
4:56 PM 71.1 °F - 70.0 °F 96% 29.89 in 4.0 mi SSW 6.9 mph - 0.22 in Rain Light Rain
5:56 PM 71.1 °F - 71.1 °F 100% 29.88 in 5.0 mi South 8.1 mph - 0.07 in Rain Light Rain
6:56 PM 70.0 °F - 68.0 °F 93% 29.88 in 9.0 mi South 8.1 mph - 0.05 in Rain Light Rain
7:56 PM 70.0 °F - 69.1 °F 97% 29.88 in 10.0 mi South 5.8 mph - 0.00 in   Mostly Cloudy
8:56 PM 70.0 °F - 69.1 °F 97% 29.88 in 10.0 mi South 4.6 mph - N/A   Mostly Cloudy
9:56 PM 69.1 °F - 68.0 °F 96% 29.89 in 9.0 mi SSW 5.8 mph - 0.00 in Rain Light Rain
10:42 PM 69.1 °F - 68.0 °F 96% 29.92 in 10.0 mi SSW 5.8 mph - 0.00 in   Overcast
10:56 PM 69.1 °F - 68.0 °F 96% 29.90 in 10.0 mi SW 4.6 mph - 0.00 in   Mostly Cloudy
11:43 PM 68.0 °F - 68.0 °F 100% 29.91 in 8.0 mi South 5.8 mph - N/A   Mostly Cloudy
11:56 PM 68.0 °F - 68.0 °F 100% 29.89 in 9.0 mi South 6.9 mph - N/A   Mostly Cloudy